SCP
0 0 0 0 0 0 0 0 0 0 0 0 0 0 0 0 0 0 0 0 0 0 0 0 0 0 0 0 0 0 0 0 0 0 0 0 0 0
0 0 0 0 0 0 0 0 0 0 0 0 0 0 0 0 0 0 0 0 0 0 0 0 0 0 0 0 0 0 0 0 0 0 0 0 0 0
0 0 0 0 0 0 0 0 0 0 0 0 0 0 0 0 0 0 0 0 0 0 0 0 0 0 0 0 0 0 0 0 0 0 0 0 0 0
0 0 0 0 0 0 0 0 0 0 0 0 0 0 0 0 0 0 0 0 0 0 0 0 0 0 0 0 0 0 0 0 0 0 0 0 0 0
0 0 0 0 0 0 0 0 0 0 0 0 0 0 0 0 0 0 0 0 0 0 0 0 0 0 0 0 0 0 0 0 0 0 0 0 0 0
0 0 0 0 0 0 0 0 0 0 0 0 0 0 0 0 0 0 0 0 0 0 0 0 0 0 0 0 0 0 0 0 0 0 0 0 0 0
0 0 0 0 0 0 0 0 0 0 0 0 0 0 0 0 0 0 0 0 0 0 0 0 0 0 0 0 0 0 0 0 0 0 0 0 0 0
0 0 0 0 0 0 0 0 0 0 0 0 0 0 0 0 0 0 0 0 0 0 0 0 0 0 0 0 0 0 0 0 0 0 0 0 0 0
0 0 0 0 0 0 0 0 0 0 0 0 0 0 0 0 0 0 0 0 0 0 0 0 0 0 0 0 0 0 0 0 0 0 0 0 0 0
0 0 0 0 0 0 0 0 0 0 0 0 0 0 0 0 0 0 0 0 0 0 0 0 0 0 0 0 0 0 0 0 0 0 0 0 0 0
0 0 0 0 0 0 0 0 0 0 0 0 0 0 0 0 0 0 0 0 0 0 0 0 0 0 0 0 0 0 0 0 0 0 0 0 0 0
0 0 0 0 0 0 0 0 0 0 0 0 0 0 0 0 0 0 0 0 0 0 0 0 0 0 0 0 0 0 0 0 0 0 0 0 0 0
0 0 0 0 0 0 0 0 0 0 0 0 0 0 0 0 0 0 0 0 0 0 0 0 0 0 0 0 0 0 0 0 0 0 0 0 0 0
0 0 0 0 0 0 0 0 0 0 0 0 0 0 0 0 0 0 0 0 0 0 0 0 0 0 0 0 0 0 0 0 0 0 0 0 0 0
0 0 0 0 0 0 0 0 0 0 0 0 0 0 0 0 0 0 0 0 0 0 0 0 0 0 0 0 0 0 0 0 0 0 0 0 0 0
0 0 0 0 0 0 0 0 0 0 0 0 0 0 0 0 0 0 0 0 0 0 0 0 0 0 0 0 0 0 0 0 0 0 0 0 0 0
0 0 0 0 0 0 0 0 0 0 0 0 0 0 0 0 0 0 0 0 0 0 0 0 0 0 0 0 0 0 0 0 0 0 0 0 0 0
0 0 0 0 0 0 0 0 0 0 0 0 0 0 0 0 0 0 0 0 0 0 0 0 0 0 0 0 0 0 0 0 0 0 0 0 0 0
0 0 0 0 0 0 0 0 0 0 0 0 0 0 0 0 0 0 0 0 0 0 0 0 0 0 0 0 0 0 0 0 0 0 0 0 0 0
0 0 0 0 0 0 0 0 0 0 0 0 0 0 0 0 0 0 0 0 0 0 0 0 0 0 0 0 0 0 0 0 0 0 0 0 0 0
0 0 0 0 0 0 0 0 0 0 0 0 0 0 0 0 0 0 0 0 0 0 0 0 0 0 0 0 0 0 0 0 0 0 0 0 0 0
0 0 0 0 0 0 0 0 0 0 0 0 0 0 0 0 0 0 0 0 0 0 0 0 0 0 0 0 0 0 0 0 0 0 0 0 0 0
0 0 0 0 0 0 0 0 0 0 0 0 0 0 0 0 0 0 0 0 0 0 0 0 0 0 0 0 0 0 0 0 0 0 0 0 0 0
Wind_Speed
7 7 5 4 4 3 3 3 2 2 3 3 2 3 2 1 1 1 1 3 2 1 1 3 4 5 6 7 8 8 8 9 8 8 8 8 8 8
6 8 7 5 4 4 4 4 3 3 3 3 3 2 1 1 1 2 1 4 5 3 2 1 1 2 4 5 6 7 7 7 7 8 7 7 7 7
7 7 7 7 5 5 4 4 4 4 4 2 2 2 1 0 1 2 2 2 3 6 5 4 2 1 2 3 5 5 6 7 7 7 7 7 8 8
8 8 7 6 7 5 4 5 4 4 3 2 1 2 1 1 1 3 2 1 2 7 8 6 4 2 1 1 3 3 4 5 6 7 7 8 8 9
7 7 7 7 7 5 5 5 4 4 2 1 1 1 0 1 1 3 2 1 2 4 7 7 6 4 2 1 1 2 3 4 5 5 6 7 7 8
7 7 7 7 6 6 5 6 5 4 2 2 2 2 2 2 2 2 2 1 2 1 0 3 6 6 5 3 2 2 3 3 4 4 5 5 6 6
6 6 6 6 6 5 5 5 5 5 4 4 3 3 3 3 3 3 3 3 2 2 2 1 2 3 4 5 5 4 3 3 3 4 4 5 6 6
4 4 5 5 3 2 3 3 3 4 4 4 4 4 4 4 3 3 3 3 3 2 2 2 0 1 3 3 4 5 3 3 3 4 5 6 6 7
5 4 6 7 8 5 3 2 2 2 1 1 3 4 3 4 4 4 4 4 3 3 2 2 1 1 1 4 7 6 4 4 4 5 5 6 7 8
5 6 6 7 8 7 5 3 2 1 1 1 1 3 3 3 3 4 5 4 3 2 1 1 2 1 1 3 7 7 6 6 6 6 6 7 8 9
6 7 6 6 8 10 6 5 5 4 2 2 4 5 6 6 3 3 4 4 3 1 2 1 2 2 1 1 4 9 8 8 8 7 7 8 9 10
5 6 9 6 7 9 6 5 5 5 6 6 4 5 5 5 5 3 3 3 3 2 2 2 2 2 2 1 1 3 5 8 10 9 9 9 8 6
3 4 4 5 6 7 5 3 3 5 6 5 3 2 1 1 1 2 1 1 1 2 2 2 2 2 1 2 2 2 3 3 3 5 8 10 9 5
4 3 2 3 5 6 5 6 9 8 4 3 3 2 2 2 2 2 1 1 2 3 3 1 1 2 2 2 2 2 1 2 2 2 3 5 7 7
3 2 2 4 6 5 5 8 7 4 3 3 3 2 2 2 2 2 2 2 3 4 2 2 2 2 1 2 2 2 2 2 1 1 1 2 3 3
3 3 5 6 6 6 5 3 2 2 2 2 3 3 3 2 2 1 2 2 2 2 3 3 3 3 2 2 2 2 2 2 2 1 1 2 2 1
6 3 2 1 1 1 1 1 1 2 2 2 3 3 3 2 2 2 1 2 2 2 2 2 3 2 3 2 1 2 2 2 2 2 2 2 2 1
6 3 2 3 3 3 3 2 2 3 3 3 3 3 3 3 3 3 2 2 2 2 2 2 2 2 3 1 1 2 2 2 2 3 2 2 2 1
3 2 2 3 3 3 3 3 3 2 2 3 3 3 3 4 4 3 2 3 3 3 2 1 1 2 3 3 2 3 2 2 2 2 2 2 2 1
1 2 2 2 3 3 3 3 3 3 3 3 3 3 3 3 4 4 3 3 3 4 3 1 0 1 2 3 3 3 7 3 2 2 3 3 1 1
3 3 3 3 3 3 3 2 2 2 3 3 3 3 4 4 4 4 4 5 3 3 3 2 2 4 3 3 3 2 3 8 5 2 2 3 2 1
3 3 2 2 2 3 3 3 3 3 3 3 4 4 4 4 5 5 4 4 3 3 3 3 3 3 2 2 3 2 2 2 5 7 7 6 3 2
3 3 3 3 3 4 4 5 5 4 4 5 5 5 5 5 4 4 4 4 4 4 4 4 4 3 3 2 2 1 3 3 1 3 4 11 15 14
Wind_Direction
61 56 58 53 45 41 45 50 71 114 113 115 100 74 53 92 111 291 149 177 181 152 30 14 10 12 15 15 15 15 14 11 10 10 9 4 357 351
64 54 45 37 35 37 36 38 34 71 91 91 92 90 51 22 173 287 274 201 206 207 231 258 319 358 4 7 7 6 4 1 356 355 355 352 347 342
68 66 59 45 33 32 34 45 47 58 84 91 110 138 155 292 307 286 267 221 191 198 214 224 234 290 339 357 2 3 2 357 353 349 345 342 339 335
64 59 53 51 43 32 30 46 49 50 68 85 126 154 188 203 259 277 283 273 199 192 204 214 219 224 275 345 358 359 355 349 349 348 344 342 339 336
64 61 56 47 39 30 33 34 36 44 44 67 112 119 117 16 321 311 323 324 312 171 200 215 218 213 218 248 317 338 344 342 341 339 338 338 339 336
68 63 60 52 38 17 38 29 25 14 12 20 45 50 42 10 5 345 342 348 343 9 260 189 194 201 207 213 234 278 309 317 319 322 326 328 329 330
83 82 80 80 63 41 44 28 21 19 19 16 29 36 30 17 9 345 359 348 346 13 342 284 176 185 199 214 220 236 255 281 301 314 320 321 321 321
78 94 106 89 80 68 46 32 25 32 25 16 21 20 17 12 357 349 356 352 340 341 340 322 318 188 184 175 185 196 221 257 293 310 316 318 317 314
53 53 66 59 39 23 352 265 234 233 243 8 8 2 8 10 353 343 340 328 304 297 328 318 329 342 150 148 176 194 213 245 274 292 302 307 308 308
61 55 65 57 31 6 349 15 54 86 226 218 353 340 352 348 336 316 305 309 301 311 350 324 319 301 142 158 195 207 221 240 258 273 285 296 303 304
72 53 55 60 26 8 5 24 33 18 13 315 283 281 285 283 283 316 330 348 344 342 7 353 334 327 286 201 204 212 229 240 251 263 276 290 302 307
103 90 67 52 26 16 12 16 18 358 341 325 298 275 262 254 234 232 298 339 349 349 4 3 343 344 334 295 240 199 226 242 245 253 263 277 294 308
96 92 72 38 18 3 354 354 342 314 303 301 305 306 304 277 195 218 242 341 357 335 341 7 337 338 323 300 288 243 214 215 218 238 241 251 265 280
54 67 72 2 344 332 328 322 323 316 297 326 352 3 7 6 349 330 308 280 251 257 275 302 289 306 318 314 299 296 283 245 214 212 217 227 245 251
31 3 309 299 309 299 279 298 313 323 352 356 352 348 335 314 303 304 279 265 268 267 255 246 260 288 305 293 299 300 295 286 271 235 228 228 221 210
349 298 276 273 275 283 291 283 281 338 350 339 336 329 322 319 316 314 310 296 293 287 261 249 255 257 266 285 297 309 315 307 304 275 254 261 249 186
334 301 270 302 324 353 351 345 344 5 358 344 337 329 331 338 325 318 322 320 322 311 300 286 267 259 241 229 295 312 323 324 311 297 294 287 262 188
343 335 18 12 7 8 3 4 25 30 3 342 340 343 342 337 337 340 348 337 326 321 320 325 344 343 331 341 262 308 325 324 310 305 305 297 284 204
323 354 33 17 7 3 3 9 10 8 347 331 343 350 346 342 339 340 346 339 328 320 312 336 16 7 346 331 280 233 252 293 312 316 309 296 282 225
357 32 23 16 12 4 2 4 354 347 354 348 347 344 339 336 334 332 329 333 321 312 314 323 327 289 271 277 279 254 218 235 286 314 314 307 330 85
34 32 24 17 5 351 346 344 335 332 348 337 334 339 338 335 331 326 325 329 312 302 316 308 277 265 250 266 278 267 222 216 222 227 280 304 307 272
30 8 2 6 7 348 348 356 357 351 356 354 352 347 339 333 329 325 322 320 319 321 318 304 296 293 280 287 295 299 288 249 225 241 251 244 243 262
47 356 337 11 27 15 14 355 345 360 17 11 356 343 333 326 318 317 323 330 334 337 335 327 320 312 310 309 312 328 330 311 219 221 251 245 241 251